EW4676 Weather Reports


Display with metric or nautical units.
time (UTC)temp
F
wind
direction
speed
MPH
gust
MPH
rain 1hr
in
rain 24hr
in
rain mn
in
humidity
%
barometer
mb
20260503002131 74 296 2.0 4.0 0.00 0.00 0.00 36 1018.4
20260503001123 74 280 2.0 7.0 0.00 0.00 0.00 35 1018.4
20260503000615 74 284 2.0 7.0 0.00 0.00 0.00 36 1018.4
20260503000107 74 303 1.0 7.0 0.00 0.00 0.00 36 1018.4
20260502235559 74 300 2.0 7.0 0.00 0.00 0.00 35 1018.4
20260502235050 74 289 3.0 8.0 0.00 0.00 0.00 36 1018.5
20260502234543 74 330 2.0 8.0 0.00 0.00 0.00 36 1018.5
20260502234536 74 286 1.0 6.0 0.00 0.00 0.00 36 1018.4
20260502233527 74 286 2.0 6.0 0.00 0.00 0.00 35 1018.4
20260502233024 74 257 2.0 9.0 0.00 0.00 0.00 37 1018.5
20260502233006 74 304 3.0 9.0 0.00 0.00 0.00 36 1018.6
20260502232005 74 276 4.0 14.0 0.00 0.00 0.00 37 1018.6
20260502231503 74 305 5.0 14.0 0.00 0.00 0.00 36 1018.6
20260502230955 75 272 5.0 11.0 0.00 0.00 0.00 36 1018.5
20260502230455 75 262 3.0 9.0 0.00 0.00 0.00 37 1018.5
20260502225953 74 258 2.0 8.0 0.00 0.00 0.00 35 1018.5
20260502225946 76 14 3.0 7.0 0.00 0.00 0.00 36 1018.6
20260502225550 75 319 3.0 6.0 0.00 0.00 0.00 34 1018.5
20260502224440 76 345 3.0 7.0 0.00 0.00 0.00 36 1018.5
20260502223938 75 12 3.0 7.0 0.00 0.00 0.00 34 1018.6
20260502223435 75 18 2.0 7.0 0.00 0.00 0.00 35 1018.6
20260502222926 76 5 1.0 6.0 0.00 0.00 0.00 33 1018.7
20260502222424 75 21 1.0 6.0 0.00 0.00 0.00 33 1018.8
20260502221922 75 21 2.0 6.0 0.00 0.00 0.00 34 1018.7
20260502221415 75 26 2.0 6.0 0.00 0.00 0.00 34 1018.8
20260502220909 76 358 1.0 5.0 0.00 0.00 0.00 34 1018.9
20260502220355 76 352 2.0 7.0 0.00 0.00 0.00 33 1018.9
20260502215856 77 332 3.0 8.0 0.00 0.00 0.00 35 1018.9
20260502215852 76 42 3.0 7.0 0.00 0.00 0.00 33 1018.9
20260502214845 76 337 3.0 8.0 0.00 0.00 0.00 35 1019.0
20260502214342 76 300 2.0 8.0 0.00 0.00 0.00 34 1019.0
20260502213838 76 303 2.0 8.0 0.00 0.00 0.00 36 1019.1
20260502213829 77 68 2.0 4.0 0.00 0.00 0.00 35 1019.2
20260502212820 77 356 1.0 3.0 0.00 0.00 0.00 32 1019.2
20260502212315 77 8 2.0 7.0 0.00 0.00 0.00 33 1019.3
20260502211809 77 333 3.0 7.0 0.00 0.00 0.00 35 1019.3
20260502211803 76 356 3.0 9.0 0.00 0.00 0.00 32 1019.4
20260502210752 77 15 4.0 8.0 0.00 0.00 0.00 36 1019.4
20260502210242 77 356 4.0 9.0 0.00 0.00 0.00 35 1019.5
20260502205732 77 357 3.0 7.0 0.00 0.00 0.00 34 1019.6
20260502205723 78 4 4.0 11.0 0.00 0.00 0.00 31 1019.6
20260502204711 77 349 3.0 11.0 0.00 0.00 0.00 33 1019.7
20260502204202 76 39 4.0 11.0 0.00 0.00 0.00 33 1019.7
20260502203650 77 20 3.0 11.0 0.00 0.00 0.00 33 1019.8
20260502203140 76 74 4.0 11.0 0.00 0.00 0.00 31 1019.8
20260502202631 77 28 5.0 11.0 0.00 0.00 0.00 34 1019.9
20260502202120 78 14 5.0 11.0 0.00 0.00 0.00 34 1019.9
20260502201610 77 17 4.0 10.0 0.00 0.00 0.00 32 1019.9
20260502201552 77 233 3.0 10.0 0.00 0.00 0.00 33 1020.0
20260502201156 77 7 3.0 10.0 0.00 0.00 0.00 32 1020.0
20260502200040 77 5 4.0 10.0 0.00 0.00 0.00 38 1020.1
20260502200032 76 342 5.0 10.0 0.00 0.00 0.00 33 1020.2
20260502195015 76 11 4.0 10.0 0.00 0.00 0.00 33 1020.2
20260502194514 76 8 2.0 10.0 0.00 0.00 0.00 31 1020.3
20260502194005 76 42 1.0 5.0 0.00 0.00 0.00 31 1020.3
20260502193454 76 77 3.0 9.0 0.00 0.00 0.00 29 1020.3
20260502193445 76 43 3.0 9.0 0.00 0.00 0.00 33 1020.3
20260502192935 76 10 4.0 9.0 0.00 0.00 0.00 32 1020.4
20260502191924 76 24 4.0 10.0 0.00 0.00 0.00 31 1020.4
20260502191414 75 315 4.0 10.0 0.00 0.00 0.00 35 1020.5
20260502190904 76 39 5.0 9.0 0.00 0.00 0.00 31 1020.6
20260502190855 76 10 3.0 9.0 0.00 0.00 0.00 33 1020.6
20260502185845 76 318 2.0 10.0 0.00 0.00 0.00 35 1020.5
20260502185335 75 22 3.0 10.0 0.00 0.00 0.00 31 1020.7
20260502184834 76 24 4.0 11.0 0.00 0.00 0.00 31 1020.7
20260502184324 76 349 3.0 11.0 0.00 0.00 0.00 33 1020.8
20260502183807 76 76 3.0 9.0 0.00 0.00 0.00 35 1020.8
20260502183256 76 10 4.0 11.0 0.00 0.00 0.00 32 1021.0
20260502182757 75 272 3.0 11.0 0.00 0.00 0.00 35 1021.0
20260502182247 74 295 2.0 9.0 0.00 0.00 0.00 36 1021.2
20260502181736 75 354 3.0 9.0 0.00 0.00 0.00 35 1021.3
20260502181226 75 309 3.0 8.0 0.00 0.00 0.00 33 1021.3
20260502180717 74 40 3.0 8.0 0.00 0.00 0.00 36 1021.4
20260502180707 74 359 4.0 10.0 0.00 0.00 0.00 33 1021.5
20260502170514 74 351 3.0 8.0 0.00 0.00 0.00 42 1022.2
20260502163923 71 18 4.0 9.0 0.00 0.00 0.00 40 1022.3
20260502163404 70 13 5.0 10.0 0.00 0.00 0.00 40 1022.3
20260502162854 70 20 4.0 10.0 0.00 0.00 0.00 39 1022.3
20260502162344 70 18 2.0 9.0 0.00 0.00 0.00 44 1022.1
20260502161835 71 317 1.0 6.0 0.00 0.00 0.00 48 1022.2
20260502161324 71 10 1.0 6.0 0.00 0.00 0.00 51 1022.1
20260502160814 69 15 3.0 8.0 0.00 0.00 0.00 48 1022.1
20260502160317 69 22 3.0 9.0 0.00 0.00 0.00 48 1022.1
20260502151655 67 321 2.0 5.0 0.00 0.00 0.00 57 1022.0
20260502151146 67 343 2.0 5.0 0.00 0.00 0.00 62 1022.0
20260502150639 66 10 2.0 8.0 0.00 0.00 0.00 61 1022.0
20260502150134 65 3 2.0 8.0 0.00 0.00 0.00 65 1022.0
20260502130354 52 351 2.0 5.0 0.00 0.00 0.00 85 1021.2
20260502123322 50 356 3.0 4.0 0.00 0.00 0.00 84 1020.8
20260502122807 50 322 3.0 4.0 0.00 0.00 0.00 84 1020.7
20260502122307 49 311 3.0 4.0 0.00 0.00 0.00 84 1020.7
20260502121759 49 305 2.0 4.0 0.00 0.00 0.00 83 1020.6
20260502121254 49 301 2.0 4.0 0.00 0.00 0.00 83 1020.5
20260502121239 49 301 2.0 4.0 0.00 0.00 0.00 83 1020.4
20260502120723 49 320 1.0 2.0 0.00 0.00 0.00 83 1020.2
20260502120327 49 320 1.0 3.0 0.00 0.00 0.00 83 1020.3
20260502115217 49 320 1.0 4.0 0.00 0.00 0.00 83 1020.1
20260502115212 49 320 2.0 4.0 0.00 0.00 0.00 83 1020.0
20260502114205 49 314 1.0 3.0 0.00 0.00 0.00 82 1019.9
20260502113655 49 317 1.0 3.0 0.00 0.00 0.00 82 1019.8
20260502113647 49 315 1.0 2.0 0.00 0.00 0.00 82 1019.7
20260502112635 49 315 0.0 1.0 0.00 0.00 0.00 82 1019.6
20260502112126 49 315 0.0 0.0 0.00 0.00 0.00 82 1019.6
20260502111615 49 315 0.0 0.0 0.00 0.00 0.00 82 1019.5
20260502111105 49 315 0.0 1.0 0.00 0.00 0.00 82 1019.4
20260502110555 49 315 0.0 1.0 0.00 0.00 0.00 82 1019.3
20260502110045 49 315 0.0 2.0 0.00 0.00 0.00 82 1019.2
20260502105535 49 315 0.0 2.0 0.00 0.00 0.00 82 1019.2
20260502105527 49 315 0.0 2.0 0.00 0.00 0.00 82 1019.2
20260502104515 50 315 1.0 3.0 0.00 0.00 0.00 82 1019.2
20260502104005 50 315 1.0 3.0 0.00 0.00 0.00 82 1019.1
20260502103455 50 312 0.0 2.0 0.00 0.00 0.00 82 1019.1
20260502102945 50 311 0.0 2.0 0.00 0.00 0.00 82 1019.1
20260502102435 50 310 0.0 2.0 0.00 0.00 0.00 82 1019.1
20260502101925 50 310 1.0 3.0 0.00 0.00 0.00 82 1019.1
20260502101416 50 309 2.0 3.0 0.00 0.00 0.00 82 1019.3
20260502100906 50 309 2.0 3.0 0.00 0.00 0.00 81 1019.4
20260502100355 50 309 1.0 3.0 0.00 0.00 0.00 81 1019.2
20260502100347 50 310 1.0 3.0 0.00 0.00 0.00 81 1019.1
20260502091208 51 243 1.0 2.0 0.00 0.00 0.00 79 1018.7
20260502091149 51 240 1.0 2.0 0.00 0.00 0.00 79 1018.8
20260502090754 51 242 1.0 2.0 0.00 0.00 0.00 79 1018.8
20260502090139 51 240 0.0 2.0 0.00 0.00 0.00 79 1018.8
20260502071309 53 220 0.0 0.0 0.00 0.00 0.00 75 1018.9
20260502070759 53 220 0.0 0.0 0.00 0.00 0.00 75 1018.9
20260502070249 53 219 0.0 0.0 0.00 0.00 0.00 75 1019.0
20260502065739 53 219 0.0 0.0 0.00 0.00 0.00 75 1018.9
20260502065229 53 219 0.0 0.0 0.00 0.00 0.00 75 1019.0
20260502064719 53 219 0.0 0.0 0.00 0.00 0.00 75 1018.9
20260502064711 53 219 0.0 0.0 0.00 0.00 0.00 75 1019.0
20260502063700 53 219 0.0 0.0 0.00 0.00 0.00 75 1019.0
20260502063152 53 219 0.0 0.0 0.00 0.00 0.00 75 1019.0
20260502062651 53 219 0.0 0.0 0.00 0.00 0.00 75 1019.0
20260502062141 53 219 0.0 2.0 0.00 0.00 0.00 75 1019.0
20260502061629 54 221 1.0 4.0 0.00 0.00 0.00 74 1019.0
20260502061215 54 222 1.0 4.0 0.00 0.00 0.00 74 1018.9
20260502060100 54 98 0.0 0.0 0.00 0.00 0.00 74 1019.1
20260502055549 54 125 0.0 0.0 0.00 0.00 0.00 73 1019.1
20260502055039 54 107 0.0 0.0 0.00 0.00 0.00 73 1019.1
20260502054531 54 100 0.0 0.0 0.00 0.00 0.00 73 1019.1
20260502054031 54 99 0.0 1.0 0.00 0.00 0.00 73 1019.2
20260502053519 54 99 0.0 1.0 0.00 0.00 0.00 72 1019.2
20260502053011 54 99 0.0 1.0 0.00 0.00 0.00 72 1019.2
20260502052501 55 99 0.0 0.0 0.00 0.00 0.00 72 1019.0
20260502052452 55 99 0.0 0.0 0.00 0.00 0.00 71 1018.9
20260502051441 55 99 0.0 0.0 0.00 0.00 0.00 71 1018.9
20260502050931 55 99 0.0 0.0 0.00 0.00 0.00 71 1018.9
20260502050431 55 99 0.0 0.0 0.00 0.00 0.00 71 1019.0
20260502045929 55 98 0.0 0.0 0.00 0.00 0.00 71 1019.0
20260502045421 55 98 0.0 0.0 0.00 0.00 0.00 70 1019.0
20260502044913 56 98 0.0 0.0 0.00 0.00 0.00 70 1018.9
20260502044413 56 98 0.0 0.0 0.00 0.00 0.00 69 1018.9
20260502043856 56 98 0.0 0.0 0.00 0.00 0.00 69 1018.9
20260502043345 56 98 0.0 0.0 0.00 0.00 0.00 69 1018.9
20260502042827 56 98 0.0 0.0 0.00 0.00 0.00 68 1018.9
20260502042817 57 98 0.0 0.0 0.00 0.00 0.00 67 1018.9
20260502042421 56 98 0.0 0.0 0.00 0.00 0.00 68 1018.9
20260502041303 57 98 0.0 1.0 0.00 0.00 0.00 67 1018.9
20260502040753 57 98 0.0 1.0 0.00 0.00 0.00 67 1018.9
20260502040243 57 98 0.0 2.0 0.00 0.00 0.00 67 1018.8
20260502035734 58 98 0.0 2.0 0.00 0.00 0.00 67 1018.9
20260502035226 58 98 0.0 2.0 0.00 0.00 0.00 66 1018.8
20260502034727 58 98 1.0 3.0 0.00 0.00 0.00 67 1018.7
20260502034216 58 97 1.0 3.0 0.00 0.00 0.00 67 1018.5
20260502033705 58 96 1.0 4.0 0.00 0.00 0.00 66 1018.6
20260502033155 58 92 1.0 4.0 0.00 0.00 0.00 66 1018.5
20260502032645 58 91 1.0 3.0 0.00 0.00 0.00 66 1018.5
20260502032135 58 95 1.0 3.0 0.00 0.00 0.00 66 1018.5
20260502031626 58 93 0.0 3.0 0.00 0.00 0.00 65 1018.6
20260502031115 58 92 0.0 3.0 0.00 0.00 0.00 65 1018.5
20260502030605 59 101 1.0 4.0 0.00 0.00 0.00 65 1018.5
20260502030055 59 100 1.0 4.0 0.00 0.00 0.00 64 1018.4
20260502030046 59 101 1.0 4.0 0.00 0.00 0.00 64 1018.3
20260502025035 59 114 1.0 4.0 0.00 0.00 0.00 64 1018.2
20260502024525 59 119 2.0 5.0 0.00 0.00 0.00 64 1018.1
20260502024013 59 87 3.0 5.0 0.00 0.00 0.00 64 1018.0
20260502023503 59 90 2.0 5.0 0.00 0.00 0.00 64 1017.9
20260502022953 59 100 2.0 6.0 0.00 0.00 0.00 64 1018.0
20260502022443 59 94 2.0 6.0 0.00 0.00 0.00 64 1018.0
20260502021943 60 113 1.0 4.0 0.00 0.00 0.00 63 1018.0
20260502021433 60 106 1.0 4.0 0.00 0.00 0.00 63 1018.0
20260502020923 60 101 1.0 4.0 0.00 0.00 0.00 63 1017.9
20260502020420 60 120 2.0 4.0 0.00 0.00 0.00 63 1017.8
20260502015911 60 108 1.0 4.0 0.00 0.00 0.00 62 1017.7
20260502015401 60 98 1.0 7.0 0.00 0.00 0.00 63 1017.5
20260502015353 60 100 1.0 7.0 0.00 0.00 0.00 63 1017.4
20260502014842 60 91 1.0 4.0 0.00 0.00 0.00 62 1017.3
20260502014332 60 130 1.0 5.0 0.00 0.00 0.00 62 1017.3
20260502013822 60 121 1.0 5.0 0.00 0.00 0.00 62 1017.2
20260502012811 61 100 1.0 4.0 0.00 0.00 0.00 62 1017.0
20260502012301 61 132 1.0 4.0 0.00 0.00 0.00 61 1017.0
20260502011751 61 130 2.0 4.0 0.00 0.00 0.00 61 1016.9
20260502011240 61 78 2.0 5.0 0.00 0.00 0.00 60 1016.8
20260502010731 61 116 2.0 6.0 0.00 0.00 0.00 60 1016.6
20260502010221 61 110 2.0 6.0 0.00 0.00 0.00 60 1016.4
20260502010213 61 98 3.0 8.0 0.00 0.00 0.00 60 1016.4
20260502005200 62 109 2.0 8.0 0.00 0.00 0.00 60 1016.3
20260502004651 62 82 2.0 6.0 0.00 0.00 0.00 60 1016.1
20260502004643 62 83 2.0 8.0 0.00 0.00 0.00 60 1016.1
20260502003631 62 97 1.0 8.0 0.00 0.00 0.00 60 1015.9
20260502003121 62 126 1.0 5.0 0.00 0.00 0.00 59 1015.9
20260502002621 62 140 1.0 5.0 0.00 0.00 0.00 58 1015.9